WZZ52S LIMC-LKPR

Flight info

Callsign WZZ52S
Flight time 1h 2m
Altitude 33000
Route OSKOR DCT NESTI DCT TAGIP DCT VESAL DCT MOBDO DCT VERDA DCT NEMAL DCT MEDEL DCT APRAQ
Aircraft A320/M-SDE3FGHIRWY/LB1

Departure

Time 2026-05-06 16:45
Airport Milan Malpensa International Airport (LIMC)

Arrival

Time 2026-05-06 17:48
Airport Václav Havel Airport Prague (LKPR)
Time Latitude Longitude Altitude Speed Heading
2026-05-06 16:25 45.62390 8.71654 731 ft 0 kts 349°
2026-05-06 16:31 45.62389 8.71655 731 ft 0 kts 349°
2026-05-06 16:31 45.62379 8.71657 730 ft 3 kts 349°
2026-05-06 16:32 45.62362 8.71662 728 ft 3 kts 349°
2026-05-06 16:32 45.62345 8.71667 729 ft 3 kts 349°
2026-05-06 16:32 45.62328 8.71672 729 ft 2 kts 353°
2026-05-06 16:32 45.62312 8.71667 729 ft 2 kts 64°
2026-05-06 16:33 45.62308 8.71651 729 ft 0 kts 87°
2026-05-06 16:35 45.62308 8.71657 729 ft 4 kts 87°
2026-05-06 16:35 45.62317 8.71758 730 ft 15 kts 79°
2026-05-06 16:35 45.62324 8.71907 729 ft 15 kts 130°
2026-05-06 16:36 45.62215 8.71954 728 ft 19 kts 171°
2026-05-06 16:36 45.62075 8.71989 726 ft 22 kts 169°
2026-05-06 16:36 45.61913 8.72033 721 ft 25 kts 168°
2026-05-06 16:36 45.61719 8.72089 718 ft 32 kts 168°
2026-05-06 16:37 45.61494 8.72154 714 ft 35 kts 169°
2026-05-06 16:37 45.61241 8.72222 706 ft 39 kts 168°
2026-05-06 16:37 45.60973 8.72299 702 ft 41 kts 170°
2026-05-06 16:37 45.60703 8.72372 698 ft 36 kts 161°
2026-05-06 16:38 45.60635 8.72572 698 ft 24 kts 98°
2026-05-06 16:38 45.60616 8.72805 703 ft 24 kts 96°
2026-05-06 16:38 45.60606 8.72955 700 ft 12 kts 95°
2026-05-06 16:38 45.60597 8.73086 699 ft 14 kts 96°
2026-05-06 16:39 45.60615 8.73232 697 ft 16 kts 50°
2026-05-06 16:39 45.60712 8.73318 696 ft 18 kts 23°
2026-05-06 16:39 45.60834 8.73383 698 ft 20 kts 19°
2026-05-06 16:39 45.60973 8.73388 699 ft 21 kts 349°
2026-05-06 16:40 45.61122 8.73346 701 ft 23 kts 349°
2026-05-06 16:40 45.61271 8.73305 704 ft 19 kts 349°
2026-05-06 16:40 45.61405 8.73267 699 ft 20 kts 345°
2026-05-06 16:40 45.61525 8.73234 700 ft 13 kts 352°
2026-05-06 16:41 45.61608 8.73246 709 ft 13 kts 38°
2026-05-06 16:41 45.61634 8.73375 699 ft 15 kts 83°
2026-05-06 16:41 45.61597 8.73525 701 ft 18 kts 113°
2026-05-06 16:41 45.61589 8.73565 700 ft 0 kts 100°
2026-05-06 16:42 45.61587 8.73579 699 ft 8 kts 99°
2026-05-06 16:43 45.61589 8.73706 703 ft 11 kts 78°
2026-05-06 16:43 45.61622 8.73744 702 ft 6 kts 356°
2026-05-06 16:43 45.61628 8.73740 702 ft 1 kts 340°
2026-05-06 16:44 45.61632 8.73738 703 ft 5 kts 342°
2026-05-06 16:44 45.61861 8.73668 712 ft 67 kts 349°
2026-05-06 16:45 45.62510 8.73493 727 ft 120 kts 349°
2026-05-06 16:45 45.63469 8.73225 745 ft 160 kts 349°
2026-05-06 16:45 45.64602 8.72926 1228 ft 165 kts 354°
2026-05-06 16:45 45.65653 8.73315 1916 ft 160 kts 51°
2026-05-06 16:46 45.66043 8.74728 2623 ft 150 kts 84°
2026-05-06 16:46 45.66041 8.76159 3286 ft 140 kts 102°
2026-05-06 16:46 45.65972 8.77568 3709 ft 157 kts 98°
2026-05-06 16:46 45.65888 8.79346 3797 ft 208 kts 95°
2026-05-06 16:47 45.65796 8.81635 4004 ft 250 kts 95°
2026-05-06 16:47 45.65776 8.84255 4715 ft 271 kts 90°
2026-05-06 16:47 45.65790 8.87039 5606 ft 279 kts 95°
2026-05-06 16:47 45.65620 8.89690 7196 ft 258 kts 99°
2026-05-06 16:48 45.65393 8.92212 8538 ft 255 kts 100°
2026-05-06 16:48 45.65154 8.94772 9392 ft 271 kts 100°
2026-05-06 16:48 45.64915 8.97547 10010 ft 292 kts 99°
2026-05-06 16:48 45.64685 9.00551 10610 ft 309 kts 98°
2026-05-06 16:49 45.64577 9.03503 11175 ft 284 kts 93°
2026-05-06 16:49 45.64594 9.06343 11792 ft 289 kts 92°
2026-05-06 16:49 45.64614 9.09244 12402 ft 303 kts 92°
2026-05-06 16:49 45.64638 9.12293 13032 ft 311 kts 93°
2026-05-06 16:50 45.64659 9.15421 13676 ft 317 kts 93°
2026-05-06 16:50 45.64676 9.18594 14243 ft 323 kts 93°
2026-05-06 16:50 45.64691 9.21820 14839 ft 327 kts 93°
2026-05-06 16:50 45.64705 9.25104 15439 ft 332 kts 93°
2026-05-06 16:51 45.64722 9.28422 16054 ft 335 kts 94°
2026-05-06 16:51 45.64738 9.31771 16679 ft 339 kts 94°
2026-05-06 16:51 45.64752 9.35152 17314 ft 342 kts 94°
2026-05-06 16:51 45.64764 9.38526 18183 ft 345 kts 94°
2026-05-06 16:52 45.64774 9.42003 18764 ft 347 kts 94°
2026-05-06 16:52 45.64783 9.45410 19338 ft 348 kts 95°
2026-05-06 16:52 45.64793 9.48876 19925 ft 350 kts 95°
2026-05-06 16:52 45.64803 9.52341 20517 ft 350 kts 95°
2026-05-06 16:53 45.64811 9.55825 20885 ft 350 kts 96°
2026-05-06 16:53 45.64816 9.59300 21510 ft 348 kts 96°
2026-05-06 16:53 45.64820 9.62759 22136 ft 351 kts 96°
2026-05-06 16:53 45.64826 9.66283 22789 ft 357 kts 96°
2026-05-06 16:54 45.64835 9.69858 23440 ft 363 kts 97°
2026-05-06 16:54 45.64845 9.73485 24005 ft 367 kts 97°
2026-05-06 16:54 45.64857 9.77171 24577 ft 370 kts 97°
2026-05-06 16:54 45.64871 9.80852 25156 ft 371 kts 97°
2026-05-06 16:55 45.64883 9.84488 25708 ft 370 kts 97°
2026-05-06 16:55 45.64893 9.88153 26319 ft 369 kts 98°
2026-05-06 16:55 45.64900 9.91807 26921 ft 367 kts 98°
2026-05-06 16:55 45.64905 9.95453 27430 ft 366 kts 98°
2026-05-06 16:56 45.64904 9.99111 27625 ft 374 kts 99°
2026-05-06 16:56 45.64928 10.02892 27775 ft 386 kts 95°
2026-05-06 16:56 45.65229 10.06785 27913 ft 402 kts 87°
2026-05-06 16:56 45.65893 10.10736 28058 ft 417 kts 78°
2026-05-06 16:57 45.66933 10.14656 28197 ft 431 kts 69°
2026-05-06 16:57 45.68374 10.18502 28337 ft 444 kts 60°
2026-05-06 16:57 45.70161 10.22164 28479 ft 455 kts 56°
2026-05-06 16:57 45.72008 10.25832 28625 ft 464 kts 56°
2026-05-06 16:58 45.73899 10.29609 28756 ft 473 kts 56°
2026-05-06 16:58 45.75829 10.33484 28900 ft 482 kts 57°
2026-05-06 16:58 45.77795 10.37448 29058 ft 491 kts 56°
2026-05-06 16:58 45.79782 10.41460 29183 ft 500 kts 57°
2026-05-06 16:59 45.81818 10.45577 29348 ft 508 kts 56°
2026-05-06 16:59 45.83846 10.49678 29468 ft 514 kts 57°
2026-05-06 16:59 45.85951 10.53935 29644 ft 521 kts 56°
2026-05-06 16:59 45.88056 10.58195 29965 ft 524 kts 57°
2026-05-06 17:00 45.90135 10.62414 30285 ft 525 kts 57°
2026-05-06 17:00 45.92240 10.66696 30703 ft 524 kts 57°
2026-05-06 17:00 45.94321 10.70969 31151 ft 523 kts 58°
2026-05-06 17:00 45.96346 10.75297 31519 ft 521 kts 59°
2026-05-06 17:01 45.98317 10.79666 31969 ft 519 kts 59°
2026-05-06 17:01 46.00247 10.84039 32325 ft 518 kts 60°
2026-05-06 17:01 46.02172 10.88432 32738 ft 517 kts 60°
2026-05-06 17:01 46.04094 10.92806 32891 ft 516 kts 60°
2026-05-06 17:02 46.05998 10.97096 32923 ft 515 kts 59°
2026-05-06 17:02 46.09864 11.05731 32934 ft 513 kts 59°
2026-05-06 17:03 46.13744 11.14390 32948 ft 513 kts 59°
2026-05-06 17:03 46.17596 11.23042 32922 ft 513 kts 60°
2026-05-06 17:04 46.21443 11.31718 32877 ft 513 kts 60°
2026-05-06 17:04 46.25261 11.40337 32864 ft 512 kts 60°
2026-05-06 17:05 46.29087 11.49009 32883 ft 512 kts 60°
2026-05-06 17:05 46.32898 11.57712 32872 ft 512 kts 60°
2026-05-06 17:06 46.36687 11.66372 32873 ft 512 kts 60°
2026-05-06 17:06 46.40422 11.75144 32876 ft 511 kts 63°
2026-05-06 17:07 46.44459 11.83620 32876 ft 514 kts 49°
2026-05-06 17:07 46.49589 11.90856 32872 ft 514 kts 42°
2026-05-06 17:08 46.54877 11.97864 32868 ft 515 kts 42°
2026-05-06 17:08 46.60164 12.04854 32862 ft 514 kts 42°
2026-05-06 17:09 46.65370 12.11842 32861 ft 514 kts 43°
2026-05-06 17:09 46.70607 12.18948 32945 ft 514 kts 43°
2026-05-06 17:10 46.75841 12.26047 32941 ft 513 kts 42°
2026-05-06 17:10 46.81063 12.33122 32944 ft 513 kts 43°
2026-05-06 17:11 46.86249 12.40168 32916 ft 511 kts 43°
2026-05-06 17:11 46.91441 12.47263 32879 ft 511 kts 42°
2026-05-06 17:12 46.96623 12.54365 32837 ft 511 kts 43°
2026-05-06 17:12 47.01817 12.61489 32824 ft 510 kts 43°
2026-05-06 17:13 47.06990 12.68623 32822 ft 510 kts 43°
2026-05-06 17:13 47.12118 12.75720 32784 ft 509 kts 43°
2026-05-06 17:14 47.17263 12.82846 32801 ft 509 kts 43°
2026-05-06 17:14 47.22419 12.89988 32777 ft 508 kts 42°
2026-05-06 17:15 47.27541 12.97107 32754 ft 504 kts 43°
2026-05-06 17:15 47.32656 13.04246 32769 ft 509 kts 44°
2026-05-06 17:16 47.37793 13.11434 32768 ft 509 kts 44°
2026-05-06 17:16 47.42893 13.18599 32761 ft 510 kts 44°
2026-05-06 17:17 47.48013 13.25819 32741 ft 508 kts 44°
2026-05-06 17:17 47.53569 13.32243 32728 ft 506 kts 28°
2026-05-06 17:18 47.60006 13.36180 32729 ft 499 kts 12°
2026-05-06 17:18 47.66649 13.38990 32738 ft 500 kts 12°
2026-05-06 17:19 47.73312 13.41850 32712 ft 500 kts 12°
2026-05-06 17:19 47.79990 13.44732 32711 ft 500 kts 12°
2026-05-06 17:20 47.86624 13.47598 32712 ft 500 kts 12°
2026-05-06 17:20 47.93271 13.50677 32704 ft 503 kts 18°
2026-05-06 17:21 47.99770 13.54531 32700 ft 504 kts 18°
2026-05-06 17:21 48.06300 13.58419 32692 ft 504 kts 18°
2026-05-06 17:22 48.12821 13.62295 32690 ft 504 kts 18°
2026-05-06 17:22 48.19324 13.66156 32690 ft 504 kts 15°
2026-05-06 17:23 48.22107 13.67426 32689 ft 499 kts
2026-05-06 17:24 48.28005 13.69251 32708 ft 497 kts
2026-05-06 17:24 48.34790 13.71311 32690 ft 497 kts
2026-05-06 17:25 48.41571 13.73387 32693 ft 497 kts
2026-05-06 17:25 48.48303 13.75467 32712 ft 497 kts
2026-05-06 17:26 48.55071 13.77562 32698 ft 496 kts
2026-05-06 17:26 48.61842 13.79652 32697 ft 496 kts
2026-05-06 17:27 48.68606 13.81744 32698 ft 496 kts
2026-05-06 17:27 48.72000 13.82802 32413 ft 501 kts
2026-05-06 17:27 48.75407 13.83864 31886 ft 502 kts
2026-05-06 17:27 48.78796 13.84922 31379 ft 503 kts
2026-05-06 17:28 48.82221 13.85995 30883 ft 503 kts
2026-05-06 17:28 48.85651 13.87070 30387 ft 504 kts
2026-05-06 17:28 48.89080 13.88144 29914 ft 504 kts
2026-05-06 17:28 48.92524 13.89222 29366 ft 503 kts
2026-05-06 17:29 48.95932 13.90291 28811 ft 500 kts
2026-05-06 17:29 48.99327 13.91354 28249 ft 496 kts
2026-05-06 17:29 49.02697 13.92411 27712 ft 492 kts
2026-05-06 17:29 49.06034 13.93462 27186 ft 488 kts
2026-05-06 17:30 49.09344 13.94509 26667 ft 485 kts
2026-05-06 17:30 49.12635 13.95556 26165 ft 481 kts
2026-05-06 17:30 49.15890 13.96591 25661 ft 476 kts
2026-05-06 17:30 49.19123 13.97617 25172 ft 472 kts
2026-05-06 17:31 49.22289 13.98620 24696 ft 469 kts
2026-05-06 17:31 49.25469 13.99628 24219 ft 466 kts
2026-05-06 17:31 49.28627 14.00628 23750 ft 463 kts
2026-05-06 17:31 49.31780 14.01627 23282 ft 460 kts
2026-05-06 17:32 49.34900 14.02621 22744 ft 457 kts
2026-05-06 17:32 49.38002 14.03613 22202 ft 453 kts
2026-05-06 17:32 49.40792 14.04509 21724 ft 449 kts
2026-05-06 17:32 49.43878 14.05500 21192 ft 445 kts
2026-05-06 17:33 49.46904 14.06470 20686 ft 441 kts
2026-05-06 17:33 49.49898 14.07431 20176 ft 437 kts
2026-05-06 17:33 49.52825 14.08372 19686 ft 433 kts
2026-05-06 17:33 49.55801 14.09331 19194 ft 430 kts
2026-05-06 17:34 49.58673 14.10258 18731 ft 426 kts
2026-05-06 17:34 49.61565 14.11189 18259 ft 422 kts
2026-05-06 17:34 49.64417 14.12108 17756 ft 418 kts
2026-05-06 17:34 49.67257 14.13022 17217 ft 414 kts
2026-05-06 17:35 49.70058 14.13918 16695 ft 410 kts
2026-05-06 17:35 49.72837 14.14799 16168 ft 406 kts
2026-05-06 17:35 49.75587 14.15666 15670 ft 401 kts
2026-05-06 17:36 49.80983 14.17554 14681 ft 395 kts 17°
2026-05-06 17:36 49.83473 14.19286 14202 ft 393 kts 28°
2026-05-06 17:36 49.85711 14.21697 13725 ft 390 kts 39°
2026-05-06 17:36 49.87591 14.24600 13219 ft 387 kts 50°
2026-05-06 17:37 49.89120 14.28004 12688 ft 383 kts 62°
2026-05-06 17:37 49.90203 14.31769 12182 ft 378 kts 74°
2026-05-06 17:37 49.90748 14.35632 11658 ft 359 kts 86°
2026-05-06 17:37 49.90787 14.39410 11154 ft 341 kts 98°
2026-05-06 17:38 49.90333 14.42908 10652 ft 324 kts 116°
2026-05-06 17:38 49.89194 14.45775 10181 ft 306 kts 133°
2026-05-06 17:38 49.87862 14.48234 9708 ft 297 kts 135°
2026-05-06 17:38 49.86503 14.50647 9167 ft 289 kts 139°
2026-05-06 17:39 49.85102 14.52759 8658 ft 282 kts 137°
2026-05-06 17:39 49.83799 14.55000 8145 ft 277 kts 134°
2026-05-06 17:39 49.82834 14.57573 7639 ft 279 kts 109°
2026-05-06 17:39 49.82725 14.60545 7139 ft 281 kts 82°
2026-05-06 17:40 49.83204 14.63443 6796 ft 272 kts 76°
2026-05-06 17:40 49.83745 14.66152 6738 ft 251 kts 75°
2026-05-06 17:40 49.84266 14.68629 6743 ft 237 kts 75°
2026-05-06 17:40 49.84925 14.70944 6751 ft 238 kts 54°
2026-05-06 17:41 49.86230 14.72507 6756 ft 240 kts 20°
2026-05-06 17:41 49.87853 14.72673 6754 ft 236 kts 339°
2026-05-06 17:41 49.89140 14.71242 6761 ft 227 kts 297°
2026-05-06 17:41 49.89563 14.69011 6759 ft 219 kts 271°
2026-05-06 17:42 49.89961 14.66717 6745 ft 226 kts 301°
2026-05-06 17:42 49.91053 14.64927 6758 ft 230 kts 310°
2026-05-06 17:42 49.92075 14.63039 6624 ft 228 kts 303°
2026-05-06 17:42 49.93027 14.61074 6370 ft 228 kts 303°
2026-05-06 17:43 49.93981 14.59111 6085 ft 229 kts 303°
2026-05-06 17:43 49.94944 14.57141 5779 ft 229 kts 304°
2026-05-06 17:43 49.95906 14.55175 5471 ft 230 kts 304°
2026-05-06 17:43 49.96875 14.53193 5163 ft 229 kts 304°
2026-05-06 17:44 49.97838 14.51222 4867 ft 229 kts 304°
2026-05-06 17:44 49.98803 14.49245 4568 ft 230 kts 306°
2026-05-06 17:44 49.99756 14.47292 4255 ft 229 kts 306°
2026-05-06 17:44 50.00707 14.45341 3946 ft 222 kts 306°
2026-05-06 17:45 50.01618 14.43470 3664 ft 210 kts 306°
2026-05-06 17:45 50.02467 14.41726 3399 ft 195 kts 307°
2026-05-06 17:45 50.03259 14.40098 3138 ft 183 kts 307°
2026-05-06 17:45 50.04006 14.38561 2922 ft 173 kts 307°
2026-05-06 17:46 50.04723 14.37084 2688 ft 166 kts 308°
2026-05-06 17:46 50.05387 14.35717 2465 ft 153 kts 308°
2026-05-06 17:46 50.06016 14.34421 2272 ft 148 kts 308°
2026-05-06 17:46 50.06631 14.33154 2074 ft 146 kts 308°
2026-05-06 17:47 50.07234 14.31910 1879 ft 145 kts 309°
2026-05-06 17:47 50.07844 14.30649 1686 ft 147 kts 308°
2026-05-06 17:47 50.08456 14.29374 1465 ft 147 kts 308°
2026-05-06 17:47 50.09066 14.28108 1287 ft 146 kts 308°
2026-05-06 17:48 50.09637 14.26939 1211 ft 116 kts 308°
2026-05-06 17:48 50.10025 14.26151 1189 ft 71 kts 307°
2026-05-06 17:48 50.10265 14.25710 1185 ft 31 kts 333°
2026-05-06 17:48 50.10370 14.25656 1183 ft 4 kts 350°
2026-05-06 17:49 50.10403 14.25650 1184 ft 0 kts 358°
2026-05-06 17:49 50.10404 14.25650 1184 ft 1 kts 359°
2026-05-06 17:49 50.10414 14.25651 1184 ft 2 kts
2026-05-06 17:49 50.10445 14.25657 1184 ft 6 kts
2026-05-06 17:50 50.10462 14.25663 1184 ft 2 kts 15°
2026-05-06 17:50 50.10474 14.25670 1184 ft 0 kts 22°
2026-05-06 17:51 50.10484 14.25677 1184 ft 6 kts 22°
2026-05-06 17:51 50.10563 14.25741 1183 ft 16 kts 32°
2026-05-06 17:51 50.10660 14.25844 1181 ft 19 kts 34°
2026-05-06 17:52 50.10770 14.25964 1172 ft 10 kts 35°
2026-05-06 17:52 50.10833 14.26030 1171 ft 8 kts 33°
2026-05-06 17:52 50.10832 14.26085 1172 ft 2 kts 132°
2026-05-06 17:52 50.10821 14.26104 1172 ft 2 kts 126°
2026-05-06 17:53 50.10807 14.26136 1173 ft 5 kts 124°
2026-05-06 17:53 50.10803 14.26144 1173 ft 0 kts 124°